O3B FM2 (39190 NORAD) Tracking and Keplerian Element Data

This shows tracking and keplerian element data for the satellite.

Feedback or suggestion? Click here.




ElementValue
Catalog39190
NameO3B FM2
Epoch Orbit20645
Epoch Day286.56068164
Epoch Year2024
RAAN350.2087
Inclination0.0372
Eccentricity0.0002532
Argument of Perigee212.0287
Mean Anonmoly157.7574
Mean Motion5.00115558
Decay Rate-1.6E-07
L11 39190U 13031C 24286.56068164 -.00000016 00000+0 00000+0 0 9994
L22 39190 0.0372 350.2087 0002532 212.0287 157.7574 5.00115558206458



Live tracking and technical data element details for O3B FM2 (NORAD 39190). O3B FM2 can be tracked NOW for your location showing map with azimuth and elevation plus other details from your city location.







IsCatalogInMostPopularTable: catalog: 39190, numindb: 597
Update: records affected: 1



GetName: 39190 O3B FM2

Hit Count: updated at: Tue, 03 Dec 2024 01:48:00 GMT